Chattanooga, TN

2:40 PM EDT on April 23, 2018 (GMT -0400)
Lovell

Weather History for KCHA - May, 2013

Change the Weather History Date:

Friday, May 24, 2013

  Actual Average Record
Temperature  
Mean Temperature 66 °F 71 °F  
Max Temperature 75 °F 82 °F 94 °F (1953)
Min Temperature 56 °F 60 °F 41 °F (1892)
Cooling Degree Days 1 6  
Month to date cooling degree days 80 98  
Year to date cooling degree days 120 144  
Growing Degree Days 17 (Base 50)    
Moisture  
Dew Point 48 °F    
Average Humidity 54    
Maximum Humidity 78    
Minimum Humidity 29    
Precipitation  
Precipitation 0.00 in 0.12 in 1.33 in (2001)
Month to date precipitation 7.19 3.22  
Year to date precipitation 34.67 21.94  
Snow  
Snow 0.00 in - - ()
Month to date snowfall 0.0  
Snow Depth 0.00 in    
Sea Level Pressure  
Sea Level Pressure 30.17 in    
Wind  
Wind Speed 8 mph (North)    
Max Wind Speed 20 mph    
Max Gust Speed 25 mph    
Visibility 10 miles    
Events      
T = Trace of Precipitation, MM = Missing Value Source: NWS Daily Summary

Daily Weather History Graph

Daily Weather History Graph

Search for Another Location

Airport or City:

Astronomy

May. 24, 2013 Rise Set
Actual Time 6:31 AM EDT 8:44 PM EDT
Civil Twilight 6:02 AM EDT 9:13 PM EDT
Nautical Twilight 5:27 AM EDT 9:48 PM EDT
Astronomical Twilight 4:49 AM EDT 10:26 PM EDT
Moon 8:26 PM EDT (5/24) 6:00 AM EDT (5/24)
Length of Visible Light 15h 10m
Length of Day
14h 13m
Full, 100% of the Moon is Illuminated
May 24
Full
May 25
Full
May 31
Last Quarter
Jun 8
New
Jun 16
First Quarter

Hourly Weather History & Observations

Time (EDT) Temp. Dew Point Humidity Pressure Visibility Wind Dir Wind Speed Gust Speed Precip Events Conditions
12:53 AM 64.9 °F 53.1 °F 65% 30.04 in 10.0 mi NW 5.8 mph - N/A   Clear
1:53 AM 64.0 °F 53.1 °F 67% 30.04 in 10.0 mi North 5.8 mph - N/A   Clear
2:53 AM 61.0 °F 54.0 °F 78% 30.04 in 10.0 mi NW 5.8 mph - N/A   Clear
3:53 AM 62.1 °F 54.0 °F 75% 30.06 in 10.0 mi NW 5.8 mph - N/A   Clear
4:53 AM 62.1 °F 54.0 °F 75% 30.06 in 10.0 mi Calm Calm - N/A   Scattered Clouds
5:53 AM 61.0 °F 54.0 °F 78% 30.08 in 10.0 mi Calm Calm - N/A   Scattered Clouds
6:53 AM 61.0 °F 54.0 °F 78% 30.10 in 10.0 mi WNW 5.8 mph - N/A   Scattered Clouds
7:53 AM 63.0 °F 54.0 °F 72% 30.13 in 10.0 mi NW 12.7 mph - N/A   Scattered Clouds
8:53 AM 64.0 °F 50.0 °F 60% 30.16 in 10.0 mi North 13.8 mph - N/A   Scattered Clouds
9:53 AM 63.0 °F 46.0 °F 54% 30.20 in 10.0 mi NNW 15.0 mph - N/A   Scattered Clouds
10:53 AM 66.0 °F 48.0 °F 52% 30.21 in 10.0 mi North 11.5 mph - N/A   Scattered Clouds
11:53 AM 68.0 °F 45.0 °F 43% 30.23 in 10.0 mi NE 12.7 mph 24.2 mph N/A   Scattered Clouds
12:53 PM 70.0 °F 46.0 °F 42% 30.23 in 10.0 mi NNE 13.8 mph 18.4 mph N/A   Partly Cloudy
1:53 PM 71.1 °F 46.9 °F 42% 30.23 in 10.0 mi NNE 10.4 mph 20.7 mph N/A   Partly Cloudy
2:53 PM 71.1 °F 45.0 °F 39% 30.23 in 10.0 mi NE 10.4 mph 18.4 mph N/A   Clear
3:53 PM 73.0 °F 44.1 °F 35% 30.22 in 10.0 mi NNE 9.2 mph - N/A   Clear
4:53 PM 73.9 °F 45.0 °F 35% 30.22 in 10.0 mi NE 8.1 mph - N/A   Partly Cloudy
5:53 PM 73.9 °F 43.0 °F 33% 30.21 in 10.0 mi NE 15.0 mph - N/A   Partly Cloudy
6:53 PM 73.9 °F 39.9 °F 29% 30.21 in 10.0 mi North 13.8 mph - N/A   Scattered Clouds
7:53 PM 72.0 °F 39.0 °F 30% 30.21 in 10.0 mi NNE 11.5 mph - N/A   Clear
8:53 PM 66.0 °F 46.0 °F 48% 30.22 in 10.0 mi NNW 4.6 mph - N/A   Partly Cloudy
9:53 PM 64.0 °F 46.0 °F 52% 30.23 in 10.0 mi NNW 4.6 mph - N/A   Partly Cloudy
10:53 PM 62.1 °F 46.9 °F 58% 30.24 in 10.0 mi North 3.5 mph - N/A   Partly Cloudy
11:53 PM 57.9 °F 48.0 °F 70% 30.27 in 10.0 mi Calm Calm - N/A   Partly Cloudy